Location: ??????????
(54.8537°N, 38.8755°E)
Time: 15:15:44
(UTC+00:00)

S-56A Canister/Altair - Pass Details

Date: 14 September 2024
Orbit: 636 x 2487 km, 38.9° (Epoch: 09 October)

Event Time Altitude Azimuth Distance (km) Brightness Sun altitude
Rises 18:06:02 0° 238° (WSW) 3,653 11.3 -19.8°
Reaches altitude 10° 18:08:45 10° 226° (SW) 2,928 10.6 -20.1°
Maximum altitude 18:14:37 27° 172° (S) 2,389 9.6 -20.8°
Enters shadow 18:15:45 26° 160° (SSE) 2,505 9.6 -20.9°
